Вернуться в каталог

ARIANE 5 R/B

АктивенHEO
NORAD 41905·ROCKET BODY·🇫🇷 France

Запущен Dec 21, 2016 с Guiana Space Centre

Loading…

Ближайшие Пролёты (ближайшие 24 часа)

TLE

СвежийSource: Space-Track

Эпоха: Sep 14, 2026, 09:25 UTC

1 41905U 16082C   26257.39302105  .00014683  00000-0  16512-2 0  9990
2 41905   6.7735  50.8597 6985956 114.9715 330.2265  2.68041065 86646

Отслеживайте ARIANE 5 R/B в реальном времени с AllMySat

Download on the App Store